Juliana Airport, Sint Maarten

12:32 AM AST on November 20, 2017 (GMT -0400)
Princess Juliana International

Weather History for TNCM - April, 2013

Change the Weather History Date:

Friday, April 5, 2013

  Actual Average Record
Temperature  
Mean Temperature 81 °F -  
Max Temperature 85 °F 83 °F 87 °F (2005)
Min Temperature 77 °F 74 °F 69 °F (2007)
Cooling Degree Days 16    
Growing Degree Days 31 (Base 50)    
Moisture  
Dew Point 70 °F    
Average Humidity 72    
Maximum Humidity 89    
Minimum Humidity 54    
Precipitation  
Precipitation 0.12 in 0.09 in - ()
Sea Level Pressure  
Sea Level Pressure 30.03 in    
Wind  
Wind Speed 10 mph ()    
Max Wind Speed 15 mph    
Max Gust Speed -    
Visibility 6.2 miles    
Events Rain    
Averages and records for this station are not official NWS values.
T = Trace of Precipitation, MM = Missing Value Source: Averaged Metar Reports

Daily Weather History Graph

Daily Weather History Graph

Search for Another Location

Airport or City:

Trip Planner

Search our weather history database for the weather conditions in past years. The results will help you decide how hot, cold, wet, or windy it might be!

Date:

Astronomy

Apr. 05, 2013 Rise Set
Actual Time 6:03 AM AST 6:26 PM AST
Civil Twilight 5:41 AM AST 6:48 PM AST
Nautical Twilight 5:15 AM AST 7:14 PM AST
Astronomical Twilight 4:50 AM AST 7:40 PM AST
Moon 2:28 AM AST (4/5) 2:22 PM AST (4/5)
Length of Visible Light 13h 07m
Length of Day
12h 23m
Waning Crescent, 24% of the Moon is Illuminated
Apr 5
Waning Crescent
Apr 10
New
Apr 18
First Quarter
Apr 25
Full
May 2
Last Quarter

Hourly Weather History & Observations

Time (AST) Temp. Heat Index Dew Point Humidity Pressure Visibility Wind Dir Wind Speed Gust Speed Precip Events Conditions
12:00 AM 78.8 °F - 68.0 °F 69% 30.06 in 6.2 mi East 13.8 mph - N/A   Scattered Clouds
1:00 AM 78.8 °F - 68.0 °F 69% 30.04 in 6.2 mi East 11.5 mph - N/A   Mostly Cloudy
2:00 AM 78 °F - 68 °F 65% 30.04 in 22 mi ESE 11.5 mph - -   Mostly Cloudy
2:00 AM 78.8 °F - 68.0 °F 69% 30.04 in 6.2 mi East 10.4 mph - N/A   Mostly Cloudy
3:00 AM 77.0 °F - 68.0 °F 74% 30.01 in 6.2 mi East 11.5 mph - N/A   Mostly Cloudy
4:00 AM 77.0 °F - 68.0 °F 74% 30.01 in 6.2 mi East 13.8 mph - N/A   Partly Cloudy
5:00 AM 78 °F - 68 °F 63% 30.02 in 22 mi East 12.7 mph - -   Scattered Clouds
5:00 AM 77.0 °F - 68.0 °F 74% 30.01 in 6.2 mi East 11.5 mph - N/A   Partly Cloudy
6:00 AM 77.0 °F - 68.0 °F 74% 30.01 in 6.2 mi East 11.5 mph - N/A   Partly Cloudy
7:00 AM 78.8 °F - 69.8 °F 74% 30.04 in 6.2 mi East 8.1 mph - N/A   Scattered Clouds
8:00 AM 80 °F - 69 °F 62% 30.07 in 22 mi ESE 11.5 mph - -   Partly Cloudy
8:00 AM 80.6 °F 83.9 °F 69.8 °F 70% 30.06 in 6.2 mi East 11.5 mph - N/A   Scattered Clouds
9:00 AM 80.6 °F 83.9 °F 69.8 °F 70% 30.06 in 6.2 mi East 10.4 mph - N/A Rain Light Rain Showers
10:00 AM 84.2 °F 87.3 °F 68.0 °F 58% 30.06 in 6.2 mi East 11.5 mph - N/A   Partly Cloudy
11:00 AM 83 °F - 69 °F 54% 30.08 in 28 mi ESE 13.8 mph - -   Partly Cloudy
11:00 AM 84.2 °F 87.3 °F 68.0 °F 58% 30.06 in 6.2 mi East 13.8 mph - N/A   Scattered Clouds
12:00 PM 84.2 °F 88.4 °F 69.8 °F 62% 30.06 in 6.2 mi East 11.5 mph - N/A   Mostly Cloudy
1:00 PM 84.2 °F 88.4 °F 69.8 °F 62% 30.04 in 6.2 mi ENE 15.0 mph - N/A   Mostly Cloudy
2:00 PM 83 °F - 72 °F 61%  in 25 mi ESE 5.8 mph - -   Partly Cloudy
2:00 PM 82.4 °F 87.2 °F 71.6 °F 70% 30.01 in 6.2 mi ESE 5.8 mph - N/A   Mostly Cloudy
3:00 PM 82.4 °F 87.2 °F 71.6 °F 70% 29.98 in 6.2 mi ESE 6.9 mph - N/A   Mostly Cloudy
4:00 PM 77.0 °F - 71.6 °F 83% 29.98 in 6.2 mi East 6.9 mph - N/A Rain Light Rain Showers
5:00 PM 78 °F - 74 °F 84% 29.98 in 25 mi SE 9.2 mph - - Rain Light Rain Showers
5:00 PM 78.8 °F - 73.4 °F 83% 29.98 in 6.2 mi SE 9.2 mph - N/A   Mostly Cloudy
6:00 PM 78.8 °F - 75.2 °F 89% 29.98 in 6.2 mi SSE 11.5 mph - N/A   Partly Cloudy
7:00 PM 78.8 °F - 73.4 °F 83% 30.01 in 6.2 mi SE 9.2 mph - N/A   Partly Cloudy
8:00 PM 78 °F - 73 °F 82% 30.03 in 37 mi SE 9.2 mph - -   Partly Cloudy
8:00 PM 78.8 °F - 73.4 °F 83% 30.01 in 6.2 mi SE 9.2 mph - N/A   Scattered Clouds
9:00 PM 78.8 °F - 73.4 °F 83% 30.04 in 6.2 mi SE 9.2 mph - N/A Rain Light Rain Showers
10:00 PM 78.8 °F - 73.4 °F 83% 30.04 in 6.2 mi ESE 10.4 mph - N/A   Scattered Clouds
11:00 PM 78.8 °F - 71.6 °F 78% 30.04 in 6.2 mi SE 10.4 mph - N/A   Partly Cloudy